Gaberone/Khama, Botswana

2:07 AM CAT on December 18, 2017 (GMT +0200)
Gaberone/Khama

Weather History for 68240 - October, 2012

Change the Weather History Date:

Wednesday, October 3, 2012

  Actual Average Record
Temperature  
Mean Temperature 78 °F -  
Max Temperature 94 °F 85 °F - ()
Min Temperature 61 °F 60 °F - ()
Cooling Degree Days 12    
Growing Degree Days 28 (Base 50)    
Moisture  
Dew Point 23 °F    
Average Humidity 13    
Maximum Humidity 25    
Minimum Humidity 4    
Precipitation  
Precipitation 0.00 in - - ()
Sea Level Pressure  
Sea Level Pressure 30.10 in    
Wind  
Wind Speed 6 mph ()    
Max Wind Speed 13 mph    
Max Gust Speed -    
Visibility 6.0 miles    
Events      
T = Trace of Precipitation, MM = Missing Value Source: Averaged Metar Reports

Daily Weather History Graph

Daily Weather History Graph

Search for Another Location

Airport or City:

Trip Planner

Search our weather history database for the weather conditions in past years. The results will help you decide how hot, cold, wet, or windy it might be!

Date:

Astronomy

Oct. 03, 2012 Rise Set
Actual Time 5:54 AM CAT 6:16 PM CAT
Civil Twilight 5:31 AM CAT 6:39 PM CAT
Nautical Twilight 5:04 AM CAT 7:06 PM CAT
Astronomical Twilight 4:38 AM CAT 7:32 PM CAT
Moon 9:17 PM CAT (10/3) 7:43 AM CAT (10/3)
Length of Visible Light 13h 07m
Length of Day
12h 22m
Waning Gibbous, 90% of the Moon is Illuminated
Oct 3
Waning Gibbous
Oct 8
Last Quarter
Oct 15
New
Oct 22
First Quarter
Oct 29
Full

Hourly Weather History & Observations

Time (CAT) Temp. Dew Point Humidity Pressure Visibility Wind Dir Wind Speed Gust Speed Precip Events Conditions
12:00 AM 69.8 °F 17.6 °F 14% 30.15 in - NE 5.8 mph - N/A   Clear
2:00 AM 63 °F 21 °F 10%  in 6 mi SSE 8.1 mph - -  
2:00 AM 62.6 °F 21.2 °F 20% 30.15 in - SSE 8.1 mph - N/A   Clear
3:00 AM 60.8 °F 21.2 °F 22% 30.12 in - SSE 4.6 mph - N/A   Clear
4:00 AM 60.8 °F 21.2 °F 22% 30.15 in - ESE 4.6 mph - N/A   Clear
5:00 AM 59.0 °F 21.2 °F 23% 30.15 in - ESE 3.5 mph - N/A   Clear
6:00 AM 57.2 °F 21.2 °F 25% 30.18 in - SE 6.9 mph - N/A   Clear
7:00 AM 64.4 °F 23.0 °F 21% 30.18 in - ESE 6.9 mph - N/A   Clear
8:00 AM 71 °F 27 °F 10%  in 6 mi NE 12.7 mph - -  
8:00 AM 71.6 °F 28.4 °F 20% 30.18 in - NE 12.7 mph - N/A   Clear
9:00 AM 78.8 °F 30.2 °F 17% 30.18 in - NE 11.5 mph - N/A   Clear
10:00 AM 84.2 °F 30.2 °F 14% 30.18 in - NE 10.4 mph - N/A   Clear
11:00 AM 87.8 °F 26.6 °F 11% 30.15 in - NE 11.5 mph - N/A   Clear
12:00 PM 89.6 °F 24.8 °F 10% 30.12 in - NNE 8.1 mph - N/A   Clear
1:00 PM 91.4 °F 24.8 °F 9% 30.09 in - Variable 4.6 mph - N/A   Clear
2:00 PM 93 °F 24 °F 4%  in 6 mi NE 6.9 mph - -  
2:00 PM 93.2 °F 24.8 °F 9% 30.06 in - NE 6.9 mph - N/A   Clear
3:00 PM 93.2 °F 24.8 °F 9% 30.04 in - ESE 5.8 mph - N/A   Clear
4:00 PM 95.0 °F 24.8 °F 8% 30.01 in - ESE 6.9 mph - N/A   Clear
5:00 PM 93.2 °F 24.8 °F 9% 30.01 in - South 8.1 mph - N/A   Clear
6:00 PM 93.2 °F 23.0 °F 8% 30.01 in - East 3.5 mph - N/A   Clear
7:00 PM 82.4 °F 23.0 °F 11% 30.01 in - ENE 8.1 mph - N/A   Clear
8:00 PM 81 °F 20 °F 4%  in 6 mi NE 5.8 mph - -  
8:00 PM 80.6 °F 19.4 °F 10% 30.01 in - NE 5.8 mph - N/A   Clear
9:00 PM 78.8 °F 21.2 °F 12% 30.04 in - NE 5.8 mph - N/A   Clear
10:00 PM 75.2 °F 19.4 °F 12% 30.04 in - NNE 5.8 mph - N/A   Clear
11:00 PM 75.2 °F 19.4 °F 12% 30.04 in - NE 5.8 mph - N/A   Clear